"Time","425012","425012","425012","425012"
"and",100.00,400.00,3000.00,3500.00
"Date","Water Level (m)","Discharge (ML/Day)","Cond @25 degC(uS/cm)","Water Temp (Deg C)"
"","Mean","Mean","Mean","Mean"
09:00:00 21/02/1974,,,,
09:00:00 22/02/1974,6.97,31312.06,,
09:00:00 23/02/1974,6.974,31390.495,,
09:00:00 24/02/1974,6.983,31629.722,,
09:00:00 25/02/1974,6.998,31984.861,,
09:00:00 26/02/1974,7.022,32652.267,,
09:00:00 27/02/1974,7.056,33731.864,,
09:00:00 28/02/1974,7.104,35261.421,,
09:00:00 01/03/1974,7.144,37149.912,,
09:00:00 02/03/1974,7.192,40435.161,,
09:00:00 03/03/1974,7.257,45566.518,,
09:00:00 04/03/1974,7.33,53535.275,,
09:00:00 05/03/1974,7.367,58471.807,,
09:00:00 06/03/1974,7.409,63635.79,,
09:00:00 07/03/1974,7.49,73460.752,,
09:00:00 08/03/1974,7.535,78873.607,,
09:00:00 09/03/1974,7.592,84706.921,,
09:00:00 10/03/1974,7.624,87421.844,,
09:00:00 11/03/1974,7.618,86798.667,,
09:00:00 12/03/1974,7.612,86226.722,,
09:00:00 13/03/1974,7.622,87281.235,,
09:00:00 14/03/1974,7.628,88070.681,,
09:00:00 15/03/1974,7.617,86655.429,,
09:00:00 16/03/1974,7.605,85670.127,,
09:00:00 17/03/1974,7.592,84820.435,,
09:00:00 18/03/1974,7.576,82244.885,,
09:00:00 19/03/1974,7.56,79478.621,,
09:00:00 20/03/1974,7.549,77583.803,,
09:00:00 21/03/1974,7.534,75259.322,,
09:00:00 22/03/1974,7.528,74075.406,,
09:00:00 23/03/1974,7.52,72476.735,,
09:00:00 24/03/1974,7.51,70419.091,,
09:00:00 25/03/1974,7.497,67963.81,,
09:00:00 26/03/1974,7.494,67296.164,,
09:00:00 27/03/1974,7.494,67346.256,,
09:00:00 28/03/1974,7.476,64081.052,,
09:00:00 29/03/1974,7.457,61047.588,,
09:00:00 30/03/1974,7.449,59941.641,,
09:00:00 31/03/1974,7.441,58772.629,,
09:00:00 01/04/1974,7.424,57080.418,,
09:00:00 02/04/1974,7.443,59144.652,,
09:00:00 03/04/1974,7.426,57215.627,,
09:00:00 04/04/1974,7.414,56188.359,,
09:00:00 05/04/1974,7.388,54215.618,,
09:00:00 06/04/1974,7.367,52707.241,,
09:00:00 07/04/1974,7.349,51409.958,,
09:00:00 08/04/1974,7.331,50053.64,,
09:00:00 09/04/1974,7.357,51953.614,,
09:00:00 10/04/1974,7.357,51942.043,,
09:00:00 11/04/1974,7.335,50377.202,,
09:00:00 12/04/1974,7.313,48800.811,,
09:00:00 13/04/1974,7.292,47287.386,,
09:00:00 14/04/1974,7.278,46278.913,,
09:00:00 15/04/1974,7.272,45774.726,,
09:00:00 16/04/1974,7.256,44655.476,,
09:00:00 17/04/1974,7.229,42897.365,,
09:00:00 18/04/1974,7.181,39698.32,,
09:00:00 19/04/1974,7.158,38389.904,,
09:00:00 20/04/1974,7.141,37428.172,,
09:00:00 21/04/1974,7.123,36475.896,,
09:00:00 22/04/1974,7.1,35424.233,,
09:00:00 23/04/1974,7.058,33670.645,,
09:00:00 24/04/1974,7.008,31788.49,,
09:00:00 25/04/1974,6.973,30803.397,,
09:00:00 26/04/1974,6.943,30021.578,,
09:00:00 27/04/1974,6.912,29236.896,,
09:00:00 28/04/1974,6.845,27634.337,,
09:00:00 29/04/1974,6.745,25827.281,,
09:00:00 30/04/1974,6.668,24831.641,,
09:00:00 01/05/1974,6.617,24325.963,,
09:00:00 02/05/1974,6.562,23793.047,,
09:00:00 03/05/1974,6.411,22417.057,,
09:00:00 04/05/1974,6.048,19971.487,,
09:00:00 05/05/1974,5.617,17800.616,,
09:00:00 06/05/1974,5.241,16266.935,,
09:00:00 07/05/1974,4.952,15197.624,,
09:00:00 08/05/1974,4.75,14515.177,,
09:00:00 09/05/1974,4.613,14072.079,,
09:00:00 10/05/1974,4.551,14437.476,,
09:00:00 11/05/1974,4.712,15348.719,,
09:00:00 12/05/1974,4.894,16229.557,,
09:00:00 13/05/1974,4.938,16440.499,,
09:00:00 14/05/1974,4.947,16481.919,,
09:00:00 15/05/1974,5.021,16840.027,,
09:00:00 16/05/1974,5.15,17464.386,,
09:00:00 17/05/1974,5.221,17804.85,,
09:00:00 18/05/1974,5.372,18530.067,,
09:00:00 19/05/1974,5.518,19233.577,,
09:00:00 20/05/1974,5.625,19748.302,,
09:00:00 21/05/1974,5.685,20035.951,,
09:00:00 22/05/1974,5.718,20199.483,,
09:00:00 23/05/1974,5.734,20273.291,,
09:00:00 24/05/1974,5.718,20196.304,,
09:00:00 25/05/1974,5.636,19802.805,,
09:00:00 26/05/1974,5.521,19250.32,,
09:00:00 27/05/1974,5.363,18486.608,,
09:00:00 28/05/1974,5.204,17723.682,,
09:00:00 29/05/1974,5.115,17291.262,,
09:00:00 30/05/1974,5.056,17003.657,,
09:00:00 31/05/1974,5.011,16788.721,,
09:00:00 01/06/1974,4.981,16642.697,,
09:00:00 02/06/1974,4.954,16516.305,,
09:00:00 03/06/1974,4.863,16078.682,,
09:00:00 04/06/1974,4.698,15283.553,,
09:00:00 05/06/1974,4.567,14653.911,,
09:00:00 06/06/1974,4.435,14011.111,,
09:00:00 07/06/1974,4.327,13494.427,,
09:00:00 08/06/1974,4.273,13238.206,,
09:00:00 09/06/1974,4.241,13084.172,,
09:00:00 10/06/1974,4.18,12785.361,,
09:00:00 11/06/1974,4.057,12196.716,,
09:00:00 12/06/1974,3.915,11533.911,,
09:00:00 13/06/1974,3.649,10358.311,,
09:00:00 14/06/1974,3.442,9483.495,,
09:00:00 15/06/1974,3.306,8935.426,,
09:00:00 16/06/1974,3.216,8581.876,,
09:00:00 17/06/1974,3.172,8415.117,,
09:00:00 18/06/1974,3.044,7934.644,,
09:00:00 19/06/1974,2.882,7347.622,,
09:00:00 20/06/1974,2.798,7053.014,,
09:00:00 21/06/1974,2.763,6933.36,,
09:00:00 22/06/1974,2.702,6724.521,,
09:00:00 23/06/1974,2.654,6563.859,,
09:00:00 24/06/1974,2.618,6446.279,,
09:00:00 25/06/1974,2.566,6275.883,,
09:00:00 26/06/1974,2.547,6215.175,,
09:00:00 27/06/1974,2.538,6186.624,,
09:00:00 28/06/1974,2.529,6159.598,,
09:00:00 29/06/1974,2.495,6050.392,,
09:00:00 30/06/1974,2.464,5952.781,,
09:00:00 01/07/1974,2.43,5802.916,,
09:00:00 02/07/1974,2.4,5609.461,,
09:00:00 03/07/1974,,,,
09:00:00 04/07/1974,,,,
09:00:00 05/07/1974,2.359,5347.366,,
09:00:00 06/07/1974,2.316,5077.628,,
09:00:00 07/07/1974,2.3,4980.617,,
09:00:00 08/07/1974,2.297,4959.585,,
09:00:00 09/07/1974,2.297,4959.198,,
09:00:00 10/07/1974,,,,
09:00:00 11/07/1974,,,,
09:00:00 12/07/1974,2.296,,,
09:00:00 13/07/1974,,,,
09:00:00 14/07/1974,,,,
09:00:00 15/07/1974,2.292,4930.906,,
09:00:00 16/07/1974,2.295,4949.418,,
09:00:00 17/07/1974,2.298,4967.062,,
09:00:00 18/07/1974,2.295,4947.884,,
09:00:00 19/07/1974,,,,
09:00:00 20/07/1974,,,,
09:00:00 21/07/1974,,,,
09:00:00 22/07/1974,,,,
09:00:00 23/07/1974,,,,
09:00:00 24/07/1974,2.298,4966.821,,
09:00:00 25/07/1974,2.278,4817.713,,
09:00:00 26/07/1974,2.264,4697.921,,
09:00:00 27/07/1974,,,,
09:00:00 28/07/1974,,,,
09:00:00 29/07/1974,,,,
09:00:00 30/07/1974,2.25,4574.186,,
09:00:00 31/07/1974,,,,
09:00:00 01/08/1974,,,,
09:00:00 02/08/1974,,,,
09:00:00 03/08/1974,,,,
09:00:00 04/08/1974,2.242,,,
09:00:00 05/08/1974,2.243,4516.616,,
09:00:00 06/08/1974,2.121,3561.455,,
09:00:00 07/08/1974,2.073,3192.163,,
09:00:00 08/08/1974,,,,
09:00:00 09/08/1974,,,,
09:00:00 10/08/1974,2.073,3192.081,,
09:00:00 11/08/1974,2.073,3186.305,,
09:00:00 12/08/1974,,,,
09:00:00 13/08/1974,,,,
09:00:00 14/08/1974,2.204,4202.922,,
09:00:00 15/08/1974,2.273,4778.576,,
09:00:00 16/08/1974,2.291,4923.85,,
09:00:00 17/08/1974,2.318,5086.11,,
09:00:00 18/08/1974,2.327,5146.137,,
09:00:00 19/08/1974,2.331,5168.366,,
09:00:00 20/08/1974,2.376,5457.901,,
09:00:00 21/08/1974,2.425,5783.304,,
09:00:00 22/08/1974,2.505,6083.646,,
09:00:00 23/08/1974,2.713,6765.846,,
09:00:00 24/08/1974,2.944,7569.513,,
09:00:00 25/08/1974,3.033,7893.284,,
09:00:00 26/08/1974,3.077,8054.127,,
09:00:00 27/08/1974,3.098,8132.72,,
09:00:00 28/08/1974,3.104,8154.878,,
09:00:00 29/08/1974,3.135,8272.653,,
09:00:00 30/08/1974,3.209,8556.15,,
09:00:00 31/08/1974,3.257,8742.247,,
09:00:00 01/09/1974,3.273,8802.416,,
09:00:00 02/09/1974,3.278,8824.278,,
09:00:00 03/09/1974,3.282,8839.2,,
09:00:00 04/09/1974,3.285,8851.276,,
09:00:00 05/09/1974,3.275,8813.841,,
09:00:00 06/09/1974,3.243,8687.009,,
09:00:00 07/09/1974,3.196,8506.11,,
09:00:00 08/09/1974,3.153,8341.573,,
09:00:00 09/09/1974,3.104,8153.984,,
09:00:00 10/09/1974,3.036,7901.554,,
09:00:00 11/09/1974,2.972,7669.628,,
09:00:00 12/09/1974,,,,
09:00:00 13/09/1974,,,,
09:00:00 14/09/1974,2.702,,,
09:00:00 15/09/1974,2.606,6409.364,,
09:00:00 16/09/1974,2.503,6075.93,,
09:00:00 17/09/1974,2.46,5940.977,,
09:00:00 18/09/1974,2.403,5632.981,,
09:00:00 19/09/1974,2.359,5346.487,,
09:00:00 20/09/1974,2.342,5236.538,,
09:00:00 21/09/1974,2.338,,,
09:00:00 22/09/1974,,,,
09:00:00 23/09/1974,,,,
09:00:00 24/09/1974,2.33,5164.581,,
09:00:00 25/09/1974,2.333,5179.358,,
09:00:00 26/09/1974,2.331,5165.768,,
09:00:00 27/09/1974,2.331,5166.203,,
09:00:00 28/09/1974,2.331,5165.662,,
09:00:00 29/09/1974,,,,
09:00:00 30/09/1974,,,,
09:00:00 01/10/1974,2.331,5167.409,,
09:00:00 02/10/1974,2.331,5170.691,,
09:00:00 03/10/1974,2.339,5216.794,,
09:00:00 04/10/1974,2.369,5412.349,,
09:00:00 05/10/1974,2.429,5804.538,,
09:00:00 06/10/1974,2.48,6002.488,,
09:00:00 07/10/1974,2.535,6178.172,,
09:00:00 08/10/1974,2.602,6395.992,,
09:00:00 09/10/1974,2.664,6598.755,,
09:00:00 10/10/1974,2.716,6774.17,,
09:00:00 11/10/1974,2.727,6809.667,,
09:00:00 12/10/1974,2.737,6842.789,,
09:00:00 13/10/1974,2.766,6943.459,,
09:00:00 14/10/1974,2.79,7024.013,,
09:00:00 15/10/1974,2.83,7163.661,,
09:00:00 16/10/1974,2.862,7276.579,,
09:00:00 17/10/1974,2.914,7460.803,,
09:00:00 18/10/1974,2.958,7619.553,,
09:00:00 19/10/1974,2.994,7749.049,,
09:00:00 20/10/1974,3.027,7869.163,,
09:00:00 21/10/1974,3.067,8018.4,,
09:00:00 22/10/1974,3.136,8277.075,,
09:00:00 23/10/1974,3.169,8400.727,,
09:00:00 24/10/1974,3.186,8465.946,,
09:00:00 25/10/1974,3.195,8500.865,,
09:00:00 26/10/1974,3.182,8450.274,,
09:00:00 27/10/1974,3.156,8350.645,,
09:00:00 28/10/1974,3.122,8221.987,,
09:00:00 29/10/1974,3.088,8095.411,,
09:00:00 30/10/1974,3.028,7873.069,,
09:00:00 31/10/1974,2.961,7627.763,,
09:00:00 01/11/1974,2.845,7218.434,,
09:00:00 02/11/1974,2.736,6840.402,,
09:00:00 03/11/1974,2.645,6535.864,,
09:00:00 04/11/1974,2.556,6244.706,,
09:00:00 05/11/1974,2.451,5873.471,,
09:00:00 06/11/1974,2.348,5276.29,,
09:00:00 07/11/1974,2.212,4267.5,,
09:00:00 08/11/1974,2.052,3057.503,,
09:00:00 09/11/1974,1.909,2132.239,,
09:00:00 10/11/1974,1.841,1772.244,,
09:00:00 11/11/1974,1.81,1621.973,,
09:00:00 12/11/1974,1.766,1422.293,,
09:00:00 13/11/1974,1.66,1021.717,,
09:00:00 14/11/1974,1.526,574.181,,
09:00:00 15/11/1974,1.463,393.247,,
09:00:00 16/11/1974,1.448,364.594,,
09:00:00 17/11/1974,1.472,417.284,,
09:00:00 18/11/1974,1.467,402.413,,
09:00:00 19/11/1974,1.454,375.347,,
09:00:00 20/11/1974,1.453,374.066,,
09:00:00 21/11/1974,1.452,372.063,,
09:00:00 22/11/1974,1.448,365.684,,
09:00:00 23/11/1974,1.458,383.255,,
09:00:00 24/11/1974,1.454,375.132,,
09:00:00 25/11/1974,1.45,368.036,,
09:00:00 26/11/1974,1.446,360.941,,
09:00:00 27/11/1974,1.453,373.36,,
09:00:00 28/11/1974,1.448,365.548,,
09:00:00 29/11/1974,1.448,364.332,,
09:00:00 30/11/1974,1.451,370.833,,
09:00:00 01/12/1974,1.452,372.284,,
09:00:00 02/12/1974,1.448,364.621,,
09:00:00 03/12/1974,1.447,363.532,,
09:00:00 04/12/1974,1.464,395.267,,
09:00:00 05/12/1974,1.47,408.964,,
09:00:00 06/12/1974,1.522,562.355,,
09:00:00 07/12/1974,1.598,820.435,,
09:00:00 08/12/1974,1.617,877.089,,
09:00:00 09/12/1974,1.646,968.85,,
09:00:00 10/12/1974,1.685,1107.185,,
09:00:00 11/12/1974,1.701,1161.724,,
09:00:00 12/12/1974,1.705,1177.855,,
09:00:00 13/12/1974,1.706,1180.031,,
09:00:00 14/12/1974,1.704,1174.667,,
09:00:00 15/12/1974,1.701,1163.623,,
09:00:00 16/12/1974,1.698,1150.844,,
09:00:00 17/12/1974,1.697,1148.23,,
09:00:00 18/12/1974,1.696,1146.385,,
09:00:00 19/12/1974,1.694,1136.782,,
09:00:00 20/12/1974,1.696,1143.984,,
09:00:00 21/12/1974,1.7,1159.064,,
09:00:00 22/12/1974,1.747,1339.924,,
09:00:00 23/12/1974,1.809,1618.182,,
09:00:00 24/12/1974,1.862,1876.083,,
09:00:00 25/12/1974,1.948,2362.758,,
09:00:00 26/12/1974,2.029,2877.282,,
09:00:00 27/12/1974,2.083,3264.733,,
09:00:00 28/12/1974,2.143,3731.8,,
09:00:00 29/12/1974,2.161,3865.537,,
09:00:00 30/12/1974,2.213,4267.937,,
09:00:00 31/12/1974,2.274,4782.954,,
09:00:00 01/01/1975,2.289,4912.157,,
09:00:00 02/01/1975,2.268,4727.926,,
09:00:00 03/01/1975,2.236,4458.266,,
09:00:00 04/01/1975,2.182,4026.129,,
09:00:00 05/01/1975,2.16,3858.306,,
09:00:00 06/01/1975,2.158,3840.708,,
09:00:00 07/01/1975,2.157,,,
09:00:00 08/01/1975,,,,
09:00:00 09/01/1975,2.112,3486.493,,
09:00:00 10/01/1975,2.082,3257.861,,
09:00:00 11/01/1975,2.069,3162.724,,
09:00:00 12/01/1975,2.008,2742.936,,
09:00:00 13/01/1975,1.922,2205.822,,
09:00:00 14/01/1975,1.812,1634.24,,
09:00:00 15/01/1975,1.671,1066.133,,
09:00:00 16/01/1975,1.55,649.784,,
09:00:00 17/01/1975,1.482,442.857,,
09:00:00 18/01/1975,1.445,360.272,,
09:00:00 19/01/1975,1.433,340.94,,
09:00:00 20/01/1975,1.419,318.623,,
09:00:00 21/01/1975,1.403,295.592,,
09:00:00 22/01/1975,1.397,285.376,,
09:00:00 23/01/1975,1.393,280.14,,
09:00:00 24/01/1975,1.393,279.249,,
09:00:00 25/01/1975,1.386,269.533,,
09:00:00 26/01/1975,1.385,268.686,,
09:00:00 27/01/1975,1.388,272.585,,
09:00:00 28/01/1975,1.389,273.708,,
09:00:00 29/01/1975,1.389,273.303,,
09:00:00 30/01/1975,1.388,271.825,,
09:00:00 31/01/1975,1.389,273.404,,
09:00:00 01/02/1975,1.387,270.775,,
09:00:00 02/02/1975,1.386,269.161,,
09:00:00 03/02/1975,1.384,266.981,,
09:00:00 04/02/1975,1.382,263.751,,
09:00:00 05/02/1975,1.382,263.502,,
09:00:00 06/02/1975,1.383,265.534,,
09:00:00 07/02/1975,1.381,262.083,,
09:00:00 08/02/1975,1.38,260.593,,
09:00:00 09/02/1975,1.376,255.763,,
09:00:00 10/02/1975,1.383,265.487,,
09:00:00 11/02/1975,1.439,355.096,,
09:00:00 12/02/1975,1.497,480.477,,
09:00:00 13/02/1975,1.55,653.697,,
09:00:00 14/02/1975,1.589,794.082,,
09:00:00 15/02/1975,1.593,805.168,,
09:00:00 16/02/1975,1.593,804.586,,
09:00:00 17/02/1975,1.594,809.226,,
09:00:00 18/02/1975,1.593,806.549,,
09:00:00 19/02/1975,1.592,803.428,,
09:00:00 20/02/1975,1.592,801.853,,
09:00:00 21/02/1975,1.588,791.232,,
09:00:00 22/02/1975,1.585,782.961,,
09:00:00 23/02/1975,1.591,798.443,,
09:00:00 24/02/1975,1.593,804.737,,
09:00:00 25/02/1975,1.59,797.373,,
09:00:00 26/02/1975,1.588,791.418,,
09:00:00 27/02/1975,1.586,783.226,,
09:00:00 28/02/1975,1.592,802.281,,
09:00:00 01/03/1975,1.661,1028.888,,
09:00:00 02/03/1975,1.752,1360.807,,
09:00:00 03/03/1975,1.764,1412.33,,
09:00:00 04/03/1975,1.763,1407.49,,
09:00:00 05/03/1975,1.767,1426.0,,
09:00:00 06/03/1975,1.767,1424.465,,
09:00:00 07/03/1975,1.767,1426.018,,
09:00:00 08/03/1975,1.766,1422.131,,
09:00:00 09/03/1975,1.767,1423.909,,
09:00:00 10/03/1975,1.772,1448.259,,
09:00:00 11/03/1975,1.772,1447.223,,
09:00:00 12/03/1975,1.769,1435.252,,
09:00:00 13/03/1975,1.769,1434.716,,
09:00:00 14/03/1975,1.769,1433.248,,
09:00:00 15/03/1975,1.768,1427.908,,
09:00:00 16/03/1975,1.769,1435.719,,
09:00:00 17/03/1975,,,,
09:00:00 18/03/1975,,,,
09:00:00 19/03/1975,1.769,1432.494,,
09:00:00 20/03/1975,1.767,1424.449,,
09:00:00 21/03/1975,1.784,1502.601,,
09:00:00 22/03/1975,1.849,1808.717,,
09:00:00 23/03/1975,1.915,2163.173,,
09:00:00 24/03/1975,1.971,2506.04,,
09:00:00 25/03/1975,2.034,2916.976,,
09:00:00 26/03/1975,2.124,3582.835,,
09:00:00 27/03/1975,2.222,4343.306,,
09:00:00 28/03/1975,2.282,4843.332,,
09:00:00 29/03/1975,2.328,5152.275,,
09:00:00 30/03/1975,2.366,5391.713,,
09:00:00 31/03/1975,2.4,5613.536,,
09:00:00 01/04/1975,2.433,5822.295,,
09:00:00 02/04/1975,2.467,5962.122,,
09:00:00 03/04/1975,2.567,6282.244,,
09:00:00 04/04/1975,2.765,6943.054,,
09:00:00 05/04/1975,2.952,7598.534,,
09:00:00 06/04/1975,3.064,8007.331,,
09:00:00 07/04/1975,3.157,8357.299,,
09:00:00 08/04/1975,3.232,8644.521,,
09:00:00 09/04/1975,3.262,8762.127,,
09:00:00 10/04/1975,3.287,8860.129,,
09:00:00 11/04/1975,3.337,9057.033,,
09:00:00 12/04/1975,3.414,9370.01,,
09:00:00 13/04/1975,3.612,10195.524,,
09:00:00 14/04/1975,3.889,11421.056,,
09:00:00 15/04/1975,4.191,12836.737,,
09:00:00 16/04/1975,4.477,14216.021,,
09:00:00 17/04/1975,4.726,15417.217,,
09:00:00 18/04/1975,5.291,18138.038,,
09:00:00 19/04/1975,5.763,20431.704,,
09:00:00 20/04/1975,5.851,21021.484,,
09:00:00 21/04/1975,5.888,21306.76,,
09:00:00 22/04/1975,5.899,21397.465,,
09:00:00 23/04/1975,5.905,,,
09:00:00 24/04/1975,,,,
09:00:00 25/04/1975,5.928,21628.24,,
09:00:00 26/04/1975,5.969,21959.12,,
09:00:00 27/04/1975,5.991,22135.262,,
09:00:00 28/04/1975,6.009,22285.601,,
09:00:00 29/04/1975,6.031,22459.414,,
09:00:00 30/04/1975,6.029,22447.043,,
09:00:00 01/05/1975,,,,
09:00:00 02/05/1975,,,,
09:00:00 03/05/1975,6.044,,,
09:00:00 04/05/1975,6.05,22616.586,,
09:00:00 05/05/1975,6.057,22672.607,,
09:00:00 06/05/1975,6.065,22743.772,,
09:00:00 07/05/1975,6.073,22809.166,,
09:00:00 08/05/1975,6.079,22858.673,,
09:00:00 09/05/1975,,,,
09:00:00 10/05/1975,,,,
09:00:00 11/05/1975,6.071,22794.937,,
09:00:00 12/05/1975,6.042,22551.527,,
09:00:00 13/05/1975,6.0,22210.166,,
09:00:00 14/05/1975,5.941,21729.294,,
09:00:00 15/05/1975,5.861,21098.251,,
09:00:00 16/05/1975,5.686,20043.794,,
09:00:00 17/05/1975,5.352,18434.166,,
09:00:00 18/05/1975,4.992,16700.624,,
09:00:00 19/05/1975,4.59,14759.03,,
09:00:00 20/05/1975,3.938,11679.093,,
09:00:00 21/05/1975,3.088,8122.309,,
09:00:00 22/05/1975,2.493,5966.046,,
09:00:00 23/05/1975,2.28,4816.218,,
09:00:00 24/05/1975,2.294,4916.069,,
09:00:00 25/05/1975,2.338,5210.264,,
09:00:00 26/05/1975,,,,
09:00:00 27/05/1975,,,,
09:00:00 28/05/1975,,,,
09:00:00 29/05/1975,2.328,5152.183,,
09:00:00 30/05/1975,2.3,4977.458,,
09:00:00 31/05/1975,2.272,4764.858,,
09:00:00 01/06/1975,2.254,4605.938,,
09:00:00 02/06/1975,2.21,4250.646,,
09:00:00 03/06/1975,2.168,3917.991,,
09:00:00 04/06/1975,2.092,3344.98,,
09:00:00 05/06/1975,2.006,2723.391,,
09:00:00 06/06/1975,1.941,2316.412,,
09:00:00 07/06/1975,1.873,1932.103,,
09:00:00 08/06/1975,1.853,1826.684,,
09:00:00 09/06/1975,1.827,1704.568,,
09:00:00 10/06/1975,1.793,1543.714,,
09:00:00 11/06/1975,1.752,1362.486,,
09:00:00 12/06/1975,1.685,1107.76,,
09:00:00 13/06/1975,1.631,920.722,,
09:00:00 14/06/1975,1.605,840.838,,
09:00:00 15/06/1975,1.602,831.364,,
09:00:00 16/06/1975,1.6,824.234,,
09:00:00 17/06/1975,,,,
09:00:00 18/06/1975,,,,
09:00:00 19/06/1975,,,,
09:00:00 20/06/1975,,,,
09:00:00 21/06/1975,1.598,820.18,,
09:00:00 22/06/1975,1.595,812.308,,
09:00:00 23/06/1975,1.575,742.707,,
09:00:00 24/06/1975,1.569,717.075,,
09:00:00 25/06/1975,1.569,719.096,,
09:00:00 26/06/1975,1.568,715.819,,
09:00:00 27/06/1975,1.568,714.048,,
09:00:00 28/06/1975,1.569,717.138,,
09:00:00 29/06/1975,1.567,712.445,,
09:00:00 30/06/1975,1.569,720.288,,
09:00:00 01/07/1975,1.566,706.611,,
09:00:00 02/07/1975,1.568,716.057,,
09:00:00 03/07/1975,1.569,717.31,,
09:00:00 04/07/1975,1.572,729.716,,
09:00:00 05/07/1975,1.573,732.263,,
09:00:00 06/07/1975,1.572,730.166,,
09:00:00 07/07/1975,1.569,720.32,,
09:00:00 08/07/1975,1.573,732.57,,
09:00:00 09/07/1975,1.569,718.868,,
09:00:00 10/07/1975,1.567,711.543,,
09:00:00 11/07/1975,1.57,723.906,,
09:00:00 12/07/1975,1.575,740.763,,
09:00:00 13/07/1975,1.574,738.799,,
09:00:00 14/07/1975,1.572,730.235,,
09:00:00 15/07/1975,1.573,734.737,,
09:00:00 16/07/1975,1.561,692.03,,
09:00:00 17/07/1975,1.565,704.296,,
09:00:00 18/07/1975,1.571,726.456,,
09:00:00 19/07/1975,1.572,728.833,,
09:00:00 20/07/1975,1.569,719.218,,
09:00:00 21/07/1975,1.568,714.299,,
09:00:00 22/07/1975,,,,
09:00:00 23/07/1975,,,,
09:00:00 24/07/1975,1.641,958.861,,
09:00:00 25/07/1975,1.771,1451.958,,
09:00:00 26/07/1975,1.826,1697.165,,
09:00:00 27/07/1975,1.848,1803.275,,
09:00:00 28/07/1975,1.868,1903.911,,
09:00:00 29/07/1975,1.916,2170.718,,
09:00:00 30/07/1975,2.008,2741.181,,
09:00:00 31/07/1975,2.043,2972.753,,
09:00:00 01/08/1975,2.046,2996.036,,
09:00:00 02/08/1975,2.034,2910.685,,
09:00:00 03/08/1975,2.034,2909.565,,
09:00:00 04/08/1975,2.032,2899.589,,
09:00:00 05/08/1975,2.042,2966.448,,
09:00:00 06/08/1975,2.074,3199.693,,
09:00:00 07/08/1975,2.125,3595.354,,
09:00:00 08/08/1975,,,,
09:00:00 09/08/1975,,,,
09:00:00 10/08/1975,2.148,3771.181,,
09:00:00 11/08/1975,2.147,3764.85,,
09:00:00 12/08/1975,2.107,3452.603,,
09:00:00 13/08/1975,2.124,3587.434,,
09:00:00 14/08/1975,2.149,3775.059,,
09:00:00 15/08/1975,2.151,3791.36,,
09:00:00 16/08/1975,2.153,3808.044,,
09:00:00 17/08/1975,2.158,3841.213,,
09:00:00 18/08/1975,,,,
09:00:00 19/08/1975,,,,
09:00:00 20/08/1975,,,,
09:00:00 21/08/1975,2.155,3822.943,,
09:00:00 22/08/1975,2.156,3830.062,,
09:00:00 23/08/1975,2.156,3829.254,,
09:00:00 24/08/1975,2.158,3843.179,,
09:00:00 25/08/1975,2.157,3834.763,,
09:00:00 26/08/1975,2.156,3829.708,,
09:00:00 27/08/1975,2.157,3838.314,,
09:00:00 28/08/1975,2.157,3837.919,,
09:00:00 29/08/1975,2.133,3657.64,,
09:00:00 30/08/1975,2.082,3257.116,,
09:00:00 31/08/1975,2.033,2903.971,,
09:00:00 01/09/1975,1.981,2565.554,,
09:00:00 02/09/1975,1.908,2124.415,,
09:00:00 03/09/1975,1.781,1496.438,,
09:00:00 04/09/1975,1.673,1066.54,,
09:00:00 05/09/1975,1.579,751.986,,
09:00:00 06/09/1975,1.544,626.257,,
09:00:00 07/09/1975,1.505,505.752,,
09:00:00 08/09/1975,1.47,408.315,,
09:00:00 09/09/1975,,,,
09:00:00 10/09/1975,,,,
09:00:00 11/09/1975,1.489,462.676,,
09:00:00 12/09/1975,1.54,615.006,,
09:00:00 13/09/1975,1.57,721.095,,
09:00:00 14/09/1975,1.645,968.712,,
09:00:00 15/09/1975,1.728,1265.578,,
09:00:00 16/09/1975,1.791,1534.739,,
09:00:00 17/09/1975,1.866,1898.779,,
09:00:00 18/09/1975,1.918,2178.243,,
09:00:00 19/09/1975,1.921,2193.126,,
09:00:00 20/09/1975,1.924,2208.094,,
09:00:00 21/09/1975,1.925,2216.206,,
09:00:00 22/09/1975,1.921,2195.743,,
09:00:00 23/09/1975,1.919,2182.525,,
09:00:00 24/09/1975,1.921,2193.672,,
09:00:00 25/09/1975,1.919,2184.6,,
09:00:00 26/09/1975,1.919,2183.597,,
09:00:00 27/09/1975,1.871,1923.699,,
09:00:00 28/09/1975,1.913,2149.644,,
09:00:00 29/09/1975,1.915,2159.421,,
09:00:00 30/09/1975,1.917,2170.145,,
09:00:00 01/10/1975,1.915,2160.761,,
09:00:00 02/10/1975,1.915,2160.502,,
09:00:00 03/10/1975,1.914,2155.88,,
09:00:00 04/10/1975,1.914,2155.051,,
09:00:00 05/10/1975,1.914,2152.524,,
09:00:00 06/10/1975,1.917,2169.718,,
09:00:00 07/10/1975,1.916,2166.999,,
09:00:00 08/10/1975,1.921,2193.816,,
09:00:00 09/10/1975,1.924,2213.566,,
09:00:00 10/10/1975,1.918,2175.572,,
09:00:00 11/10/1975,1.971,2502.946,,
09:00:00 12/10/1975,2.014,2779.671,,
09:00:00 13/10/1975,2.025,2850.641,,
09:00:00 14/10/1975,2.05,3022.129,,
09:00:00 15/10/1975,2.06,3090.393,,
09:00:00 16/10/1975,,,,
09:00:00 17/10/1975,,,,
09:00:00 18/10/1975,2.06,3092.493,,
09:00:00 19/10/1975,2.061,3102.625,,
09:00:00 20/10/1975,2.059,3088.114,,
09:00:00 21/10/1975,2.031,2895.297,,
09:00:00 22/10/1975,2.016,2791.04,,
09:00:00 23/10/1975,2.057,3079.451,,
09:00:00 24/10/1975,2.16,3856.72,,
09:00:00 25/10/1975,2.228,4393.505,,
09:00:00 26/10/1975,2.275,4797.488,,
09:00:00 27/10/1975,2.28,4839.368,,
09:00:00 28/10/1975,2.281,4850.281,,
09:00:00 29/10/1975,2.285,4883.235,,
09:00:00 30/10/1975,2.286,4887.568,,
09:00:00 31/10/1975,2.285,4882.773,,
09:00:00 01/11/1975,2.283,4864.982,,
09:00:00 02/11/1975,2.284,4874.568,,
09:00:00 03/11/1975,2.284,4870.175,,
09:00:00 04/11/1975,2.281,4848.027,,
09:00:00 05/11/1975,2.283,4862.733,,
09:00:00 06/11/1975,2.221,4337.669,,
09:00:00 07/11/1975,2.155,3821.958,,
09:00:00 08/11/1975,2.098,3384.282,,
09:00:00 09/11/1975,2.029,2882.7,,
09:00:00 10/11/1975,1.999,2683.064,,
09:00:00 11/11/1975,1.949,2365.306,,
09:00:00 12/11/1975,1.919,2181.647,,
09:00:00 13/11/1975,1.911,2138.976,,
09:00:00 14/11/1975,1.915,2156.991,,
09:00:00 15/11/1975,1.915,2159.372,,
09:00:00 16/11/1975,1.914,2152.551,,
09:00:00 17/11/1975,1.914,2153.735,,
09:00:00 18/11/1975,1.915,2158.249,,
09:00:00 19/11/1975,1.916,2166.139,,
09:00:00 20/11/1975,1.915,2157.19,,
09:00:00 21/11/1975,1.916,2163.615,,
09:00:00 22/11/1975,1.917,2172.246,,
09:00:00 23/11/1975,1.918,2174.695,,
09:00:00 24/11/1975,1.916,2163.343,,
09:00:00 25/11/1975,1.912,2143.919,,
09:00:00 26/11/1975,1.911,2133.917,,
09:00:00 27/11/1975,1.914,2153.467,,
09:00:00 28/11/1975,1.952,2385.919,,
09:00:00 29/11/1975,2.01,2753.8,,
09:00:00 30/11/1975,2.071,3173.555,,